GW3555 Weather Reports


Display with metric or nautical units.
time (UTC)temp
F
wind
direction
speed
MPH
gust
MPH
rain 1hr
in
rain 24hr
in
rain mn
in
humidity
%
barometer
mb
20260508054554 58 252 1.0 4.0 0.00 0.00 0.00 54 1012.9
20260508054032 59 237 1.0 4.0 0.00 0.00 0.00 53 1012.8
20260508053520 60 220 2.0 4.0 0.00 0.00 0.00 51 1012.8
20260508053117 59 269 1.0 3.0 0.00 0.00 0.00 51 1012.8
20260508052522 59 257 2.0 4.0 0.00 0.00 0.00 53 1012.8
20260508052020 60 233 2.0 4.0 0.00 0.00 0.00 53 1012.9
20260508051605 60 220 2.0 5.0 0.00 0.00 0.00 50 1012.8
20260508051028 60 273 2.0 5.0 0.00 0.00 0.00 51 1012.8
20260508050537 60 234 1.0 4.0 0.00 0.00 0.00 52 1012.8
20260508050138 60 231 1.0 4.0 0.00 0.00 0.00 52 1012.9
20260508045529 61 221 2.0 4.0 0.00 0.00 0.00 51 1012.8
20260508045017 61 209 2.0 4.0 0.00 0.00 0.00 49 1012.8
20260508044631 61 250 2.0 4.0 0.00 0.00 0.00 51 1012.8
20260508044037 61 230 2.0 4.0 0.00 0.00 0.00 51 1012.8
20260508043521 61 215 2.0 5.0 0.00 0.00 0.00 50 1012.7
20260508043125 62 198 2.0 5.0 0.00 0.00 0.00 50 1012.8
20260508042524 62 221 1.0 5.0 0.00 0.00 0.00 49 1012.7
20260508042041 62 184 1.0 5.0 0.00 0.00 0.00 48 1012.6
20260508041633 62 221 2.0 4.0 0.00 0.00 0.00 49 1012.5
20260508041018 62 229 1.0 3.0 0.00 0.00 0.00 49 1012.5
20260508040524 63 215 2.0 4.0 0.00 0.00 0.00 47 1012.5
20260508040147 63 221 1.0 5.0 0.00 0.00 0.00 48 1012.4
20260508035520 64 208 2.0 5.0 0.00 0.00 0.00 47 1012.4
20260508035035 64 233 1.0 4.0 0.00 0.00 0.00 48 1012.2
20260508034630 64 236 2.0 5.0 0.00 0.00 0.00 48 1012.2
20260508034023 64 230 2.0 6.0 0.00 0.00 0.00 47 1012.0
20260508033529 65 232 2.0 6.0 0.00 0.00 0.00 46 1012.1
20260508033130 65 215 3.0 4.0 0.00 0.00 0.00 45 1012.0
20260508032520 65 221 2.0 4.0 0.00 0.00 0.00 46 1012.1
20260508032032 66 202 1.0 3.0 0.00 0.00 0.00 45 1012.0
20260508031632 67 203 2.0 3.0 0.00 0.00 0.00 43 1011.9
20260508031020 68 268 0.0 3.0 0.00 0.00 0.00 41 1011.8
20260508030520 68 270 0.0 4.0 0.00 0.00 0.00 39 1011.8
20260508030128 69 242 1.0 3.0 0.00 0.00 0.00 38 1011.7
20260508025523 69 236 1.0 3.0 0.00 0.00 0.00 40 1011.7
20260508025031 69 231 1.0 4.0 0.00 0.00 0.00 39 1011.8
20260508024616 70 180 2.0 5.0 0.00 0.00 0.00 38 1011.8
20260508024019 70 240 1.0 4.0 0.00 0.00 0.00 38 1011.8
20260508023532 70 257 1.0 4.0 0.00 0.00 0.00 37 1011.8
20260508023129 70 234 1.0 2.0 0.00 0.00 0.00 37 1011.8
20260508022530 70 229 1.0 3.0 0.00 0.00 0.00 38 1011.8
20260508022024 71 225 1.0 4.0 0.00 0.00 0.00 38 1011.7
20260508021637 71 116 1.0 4.0 0.00 0.00 0.00 35 1011.8
20260508021036 72 98 0.0 3.0 0.00 0.00 0.00 34 1011.7
20260508020523 72 222 0.0 5.0 0.00 0.00 0.00 36 1011.8
20260508020140 72 317 1.0 5.0 0.00 0.00 0.00 31 1011.8
20260508015530 73 142 0.0 2.0 0.00 0.00 0.00 33 1011.7
20260508015024 73 158 0.0 2.0 0.00 0.00 0.00 35 1011.5
20260508014614 73 208 0.0 2.0 0.00 0.00 0.00 32 1011.8
20260508014025 73 208 0.0 2.0 0.00 0.00 0.00 30 1011.6
20260508013537 74 212 0.0 2.0 0.00 0.00 0.00 32 1011.7
20260508013137 74 211 0.0 2.0 0.00 0.00 0.00 30 1011.7
20260508012536 74 221 0.0 2.0 0.00 0.00 0.00 29 1011.5
20260508012047 74 178 0.0 2.0 0.00 0.00 0.00 29 1011.5
20260508011616 74 197 1.0 2.0 0.00 0.00 0.00 28 1011.5
20260508011024 75 178 1.0 2.0 0.00 0.00 0.00 29 1011.5
20260508010541 75 174 1.0 3.0 0.00 0.00 0.00 29 1011.5
20260508010140 75 200 1.0 3.0 0.00 0.00 0.00 28 1011.7
20260508005536 76 186 1.0 3.0 0.00 0.00 0.00 27 1011.9
20260508005046 76 196 0.0 3.0 0.00 0.00 0.00 29 1011.8
20260508004616 76 223 0.0 2.0 0.00 0.00 0.00 31 1011.8
20260508004029 76 167 1.0 3.0 0.00 0.00 0.00 31 1011.8
20260508003541 76 312 0.0 3.0 0.00 0.00 0.00 31 1011.9
20260508003055 77 101 0.0 3.0 0.00 0.00 0.00 28 1012.1
20260508002544 77 96 0.0 3.0 0.00 0.00 0.00 29 1012.0
20260508002025 77 38 0.0 2.0 0.00 0.00 0.00 28 1012.0
20260508001611 76 286 0.0 2.0 0.00 0.00 0.00 29 1011.9
20260508001030 75 197 0.0 2.0 0.00 0.00 0.00 29 1011.9
20260508000524 75 180 0.0 3.0 0.00 0.00 0.00 29 1011.9
20260508000128 76 10 0.0 3.0 0.00 0.00 0.00 29 1012.1
20260507235525 76 54 1.0 3.0 0.00 0.00 0.00 27 1012.0
20260507235030 77 39 0.0 2.0 0.00 0.00 0.00 28 1012.2
20260507234624 77 59 0.0 2.0 0.00 0.00 0.00 26 1012.3
20260507234041 77 49 0.0 4.0 0.00 0.00 0.00 26 1012.2
20260507233533 78 360 2.0 4.0 0.00 0.00 0.00 25 1012.2
20260507233103 79 338 1.0 3.0 0.00 0.00 0.00 24 1012.3
20260507232537 80 30 1.0 3.0 0.00 0.00 0.00 24 1012.2
20260507232023 80 46 1.0 5.0 0.00 0.00 0.00 24 1012.4
20260507231616 81 288 2.0 5.0 0.00 0.00 0.00 23 1012.4
20260507231055 80 346 1.0 4.0 0.00 0.00 0.00 25 1012.5
20260507230524 80 62 2.0 4.0 0.00 0.00 0.00 25 1012.7
20260507230124 80 134 1.0 4.0 0.00 0.00 0.00 25 1012.7
20260507225536 80 19 2.0 4.0 0.00 0.00 0.00 24 1012.8
20260507225045 80 333 1.0 4.0 0.00 0.00 0.00 24 1012.9
20260507224655 80 144 2.0 4.0 0.00 0.00 0.00 24 1012.9
20260507224044 80 9 2.0 5.0 0.00 0.00 0.00 25 1013.0
20260507223600 80 55 2.0 5.0 0.00 0.00 0.00 25 1013.1
20260507223153 80 165 1.0 7.0 0.00 0.00 0.00 24 1013.1
20260507222616 80 215 3.0 7.0 0.00 0.00 0.00 23 1013.3
20260507222034 80 132 1.0 9.0 0.00 0.00 0.00 25 1013.3
20260507221610 80 211 2.0 9.0 0.00 0.00 0.00 24 1013.3
20260507221104 80 130 3.0 7.0 0.00 0.00 0.00 24 1013.4
20260507220525 81 186 2.0 4.0 0.00 0.00 0.00 23 1013.5
20260507220116 80 89 1.0 5.0 0.00 0.00 0.00 24 1013.5
20260507215528 81 93 2.0 5.0 0.00 0.00 0.00 23 1013.5
20260507215038 80 36 1.0 5.0 0.00 0.00 0.00 23 1013.5
20260507214638 80 61 2.0 6.0 0.00 0.00 0.00 24 1013.6
20260507214113 80 272 1.0 8.0 0.00 0.00 0.00 24 1013.7
20260507213526 80 244 2.0 6.0 0.00 0.00 0.00 24 1013.8
20260507213058 79 202 1.0 5.0 0.00 0.00 0.00 25 1013.8
20260507212533 79 108 1.0 6.0 0.00 0.00 0.00 24 1013.7
20260507212024 78 51 2.0 6.0 0.00 0.00 0.00 24 1013.9
20260507211620 78 53 1.0 10.0 0.00 0.00 0.00 25 1013.9
20260507211037 78 161 4.0 10.0 0.00 0.00 0.00 23 1013.9
20260507210540 78 161 2.0 7.0 0.00 0.00 0.00 24 1014.0
20260507210121 79 105 2.0 7.0 0.00 0.00 0.00 26 1014.1
20260507205549 79 346 2.0 6.0 0.00 0.00 0.00 24 1014.2
20260507205023 79 38 2.0 6.0 0.00 0.00 0.00 24 1014.2
20260507204631 78 319 0.0 6.0 0.00 0.00 0.00 24 1014.2
20260507204117 78 31 2.0 7.0 0.00 0.00 0.00 25 1014.3
20260507203557 78 218 2.0 7.0 0.00 0.00 0.00 24 1014.4
20260507203138 78 41 2.0 5.0 0.00 0.00 0.00 23 1014.5
20260507202538 78 341 1.0 5.0 0.00 0.00 0.00 26 1014.5
20260507202032 78 346 1.0 5.0 0.00 0.00 0.00 25 1014.5
20260507201615 78 99 2.0 6.0 0.00 0.00 0.00 26 1014.5
20260507201026 78 25 2.0 7.0 0.00 0.00 0.00 26 1014.5
20260507200546 78 167 1.0 7.0 0.00 0.00 0.00 25 1014.6
20260507200122 78 123 0.0 5.0 0.00 0.00 0.00 25 1014.7
20260507195536 78 80 1.0 5.0 0.00 0.00 0.00 26 1014.6
20260507195043 78 192 2.0 6.0 0.00 0.00 0.00 25 1014.6
20260507194629 78 79 1.0 4.0 0.00 0.00 0.00 25 1014.5
20260507194032 77 28 1.0 5.0 0.00 0.00 0.00 25 1014.5
20260507193539 77 329 2.0 7.0 0.00 0.00 0.00 22 1014.5
20260507193131 78 158 1.0 4.0 0.00 0.00 0.00 24 1014.6
20260507192523 77 80 1.0 3.0 0.00 0.00 0.00 26 1014.7
20260507192019 76 146 1.0 5.0 0.00 0.00 0.00 25 1014.6
20260507191618 75 156 1.0 3.0 0.00 0.00 0.00 28 1014.6
20260507191022 75 342 1.0 4.0 0.00 0.00 0.00 26 1014.6
20260507190529 75 9 1.0 5.0 0.00 0.00 0.00 26 1014.7
20260507190226 75 298 1.0 5.0 0.00 0.00 0.00 26 1014.9
20260507190222 75 163 0.0 4.0 0.00 0.00 0.00 26 1014.8
20260507184541 74 352 2.0 5.0 0.00 0.00 0.00 29 1014.7
20260507184042 74 328 2.0 6.0 0.00 0.00 0.00 29 1015.0
20260507183610 74 20 1.0 6.0 0.00 0.00 0.00 29 1015.0
20260507183116 74 341 2.0 8.0 0.00 0.00 0.00 30 1015.1
20260507182538 73 11 1.0 8.0 0.00 0.00 0.00 30 1015.0
20260507182042 73 36 1.0 8.0 0.00 0.00 0.00 29 1015.1
20260507181620 73 298 1.0 7.0 0.00 0.00 0.00 32 1015.2
20260507181107 73 61 2.0 4.0 0.00 0.00 0.00 30 1015.2
20260507180537 73 49 1.0 5.0 0.00 0.00 0.00 33 1015.2
20260507180057 73 26 2.0 6.0 0.00 0.00 0.00 32 1015.1
20260507175523 72 115 1.0 8.0 0.00 0.00 0.00 32 1015.2
20260507175032 71 341 2.0 8.0 0.00 0.00 0.00 34 1015.3
20260507174607 71 17 2.0 5.0 0.00 0.00 0.00 32 1015.4
20260507174025 71 265 2.0 5.0 0.00 0.00 0.00 34 1015.6
20260507173538 70 306 1.0 5.0 0.00 0.00 0.00 36 1015.5
20260507173110 69 320 2.0 9.0 0.00 0.00 0.00 35 1015.5
20260507172539 69 11 1.0 10.0 0.00 0.00 0.00 36 1015.4
20260507172040 69 292 2.0 10.0 0.00 0.00 0.00 35 1015.5
20260507171620 69 339 1.0 6.0 0.00 0.00 0.00 36 1015.4
20260507171021 69 316 3.0 6.0 0.00 0.00 0.00 35 1015.5
20260507170542 68 51 2.0 5.0 0.00 0.00 0.00 38 1015.6
20260507170117 68 319 1.0 6.0 0.00 0.00 0.00 38 1015.7
20260507165606 67 347 3.0 6.0 0.00 0.00 0.00 37 1015.5
20260507165029 67 231 2.0 7.0 0.00 0.00 0.00 38 1015.5
20260507164557 67 250 2.0 7.0 0.00 0.00 0.00 39 1015.5
20260507164048 66 290 2.0 9.0 0.00 0.00 0.00 40 1015.6
20260507163528 65 244 1.0 7.0 0.00 0.00 0.00 41 1015.6
20260507163131 65 324 2.0 7.0 0.00 0.00 0.00 40 1015.7
20260507162536 65 319 1.0 9.0 0.00 0.00 0.00 41 1015.6
20260507162024 64 265 2.0 7.0 0.00 0.00 0.00 42 1015.7
20260507161623 64 15 2.0 7.0 0.00 0.00 0.00 42 1015.8
20260507161040 63 41 2.0 7.0 0.00 0.00 0.00 43 1016.0
20260507160531 63 352 2.0 9.0 0.00 0.00 0.00 43 1016.0
20260507160109 63 279 2.0 9.0 0.00 0.00 0.00 44 1016.0
20260507155532 62 298 2.0 8.0 0.00 0.00 0.00 44 1016.0
20260507155022 62 269 1.0 8.0 0.00 0.00 0.00 46 1016.1
20260507154623 61 314 1.0 8.0 0.00 0.00 0.00 45 1016.1
20260507154021 61 275 1.0 5.0 0.00 0.00 0.00 47 1016.0
20260507153536 60 252 2.0 6.0 0.00 0.00 0.00 46 1016.2
20260507153110 60 174 1.0 9.0 0.00 0.00 0.00 47 1016.2
20260507152558 60 16 2.0 6.0 0.00 0.00 0.00 47 1016.3
20260507152027 59 298 3.0 7.0 0.00 0.00 0.00 49 1016.3
20260507151555 59 352 2.0 7.0 0.00 0.00 0.00 47 1016.4
20260507151109 59 216 1.0 9.0 0.00 0.00 0.00 49 1016.4
20260507150526 59 22 2.0 9.0 0.00 0.00 0.00 49 1016.5
20260507150106 58 273 1.0 6.0 0.00 0.00 0.00 49 1016.5
20260507145540 58 328 1.0 7.0 0.00 0.00 0.00 50 1016.5
20260507145114 58 216 2.0 7.0 0.00 0.00 0.00 50 1016.5
20260507144619 58 287 1.0 6.0 0.00 0.00 0.00 50 1016.4
20260507144103 57 251 2.0 8.0 0.00 0.00 0.00 50 1016.4
20260507143533 57 258 2.0 8.0 0.00 0.00 0.00 50 1016.5
20260507143110 57 207 1.0 5.0 0.00 0.00 0.00 52 1016.4
20260507142540 57 282 0.0 8.0 0.00 0.00 0.00 52 1016.5
20260507142042 56 332 1.0 11.0 0.00 0.00 0.00 52 1016.4
20260507141631 56 42 1.0 11.0 0.00 0.00 0.00 51 1016.5
20260507141115 56 267 1.0 5.0 0.00 0.00 0.00 51 1016.4
20260507140544 56 27 1.0 5.0 0.00 0.00 0.00 52 1016.3
20260507140133 56 279 2.0 5.0 0.00 0.00 0.00 51 1016.4
20260507135548 56 273 2.0 5.0 0.00 0.00 0.00 52 1016.4
20260507135054 55 269 2.0 5.0 0.00 0.00 0.00 53 1016.3
20260507134631 55 151 1.0 5.0 0.00 0.00 0.00 53 1016.1
20260507134100 54 138 0.0 3.0 0.00 0.00 0.00 54 1016.2
20260507133536 54 310 0.0 3.0 0.00 0.00 0.00 55 1016.1
20260507133136 54 264 1.0 3.0 0.00 0.00 0.00 55 1016.1
20260507132603 54 252 0.0 3.0 0.00 0.00 0.00 55 1016.0
20260507132048 54 269 0.0 8.0 0.00 0.00 0.00 55 1016.0
20260507131629 53 191 3.0 8.0 0.00 0.00 0.00 56 1016.2
20260507131100 53 230 2.0 5.0 0.00 0.00 0.00 55 1016.0
20260507130544 53 258 2.0 4.0 0.00 0.00 0.00 56 1016.0
20260507130145 53 221 1.0 5.0 0.00 0.00 0.00 56 1015.8
20260507125522 53 255 2.0 6.0 0.00 0.00 0.00 55 1015.7
20260507125033 53 249 2.0 4.0 0.00 0.00 0.00 56 1015.7
20260507124627 53 263 2.0 3.0 0.00 0.00 0.00 55 1015.5
20260507124033 53 257 0.0 4.0 0.00 0.00 0.00 55 1015.6
20260507123531 53 209 2.0 4.0 0.00 0.00 0.00 55 1015.5
20260507123108 53 251 2.0 4.0 0.00 0.00 0.00 55 1015.5
20260507122527 53 284 1.0 4.0 0.00 0.00 0.00 54 1015.6
20260507122019 54 271 1.0 5.0 0.00 0.00 0.00 54 1015.7
20260507121556 54 292 1.0 5.0 0.00 0.00 0.00 54 1015.5
20260507121041 54 250 2.0 5.0 0.00 0.00 0.00 53 1015.7
20260507120522 54 236 2.0 6.0 0.00 0.00 0.00 53 1015.7
20260507120147 54 259 2.0 6.0 0.00 0.00 0.00 53 1015.7
20260507115618 54 264 2.0 5.0 0.00 0.00 0.00 53 1015.8
20260507115112 54 222 2.0 8.0 0.00 0.00 0.00 53 1015.8
20260507114627 54 201 3.0 8.0 0.00 0.00 0.00 53 1016.0
20260507114032 54 271 2.0 4.0 0.00 0.00 0.00 53 1016.0
20260507113521 54 250 1.0 4.0 0.00 0.00 0.00 52 1015.8
20260507113126 54 277 1.0 9.0 0.00 0.00 0.00 52 1015.9
20260507112559 54 242 2.0 10.0 0.00 0.00 0.00 52 1015.8
20260507112021 54 262 3.0 10.0 0.00 0.00 0.00 52 1015.9
20260507111611 55 271 2.0 8.0 0.00 0.00 0.00 52 1015.8
20260507111018 54 258 2.0 8.0 0.00 0.00 0.00 52 1015.7
20260507110548 54 292 3.0 7.0 0.00 0.00 0.00 52 1015.8
20260507110141 55 296 2.0 5.0 0.00 0.00 0.00 51 1015.9
20260507105542 55 313 3.0 5.0 0.00 0.00 0.00 50 1015.9
20260507105049 55 230 2.0 5.0 0.00 0.00 0.00 51 1015.8
20260507104616 55 280 1.0 7.0 0.00 0.00 0.00 51 1015.9
20260507104024 55 265 2.0 7.0 0.00 0.00 0.00 51 1015.9
20260507103601 55 227 3.0 8.0 0.00 0.00 0.00 51 1015.7
20260507103113 55 257 2.0 8.0 0.00 0.00 0.00 50 1015.8
20260507102529 55 267 3.0 7.0 0.00 0.00 0.00 50 1015.7
20260507102021 55 323 3.0 6.0 0.00 0.00 0.00 50 1015.7
20260507101613 55 277 2.0 7.0 0.00 0.00 0.00 50 1015.6
20260507101018 55 306 3.0 7.0 0.00 0.00 0.00 50 1015.6
20260507100531 55 270 3.0 6.0 0.00 0.00 0.00 49 1015.7
20260507100131 56 244 2.0 7.0 0.00 0.00 0.00 50 1015.6
20260507095534 56 214 3.0 7.0 0.00 0.00 0.00 49 1015.5
20260507095039 55 244 2.0 7.0 0.00 0.00 0.00 49 1015.6
20260507094619 56 232 2.0 9.0 0.00 0.00 0.00 49 1015.3
20260507094110 56 272 4.0 9.0 0.00 0.00 0.00 49 1015.5
20260507093541 55 282 2.0 8.0 0.00 0.00 0.00 50 1015.5
20260507093125 56 271 2.0 8.0 0.00 0.00 0.00 49 1015.6
20260507092521 56 257 3.0 7.0 0.00 0.00 0.00 49 1015.6
20260507092018 56 275 3.0 10.0 0.00 0.00 0.00 49 1015.5
20260507091611 55 252 2.0 8.0 0.00 0.00 0.00 50 1015.5
20260507091023 55 273 2.0 8.0 0.00 0.00 0.00 51 1015.6
20260507090536 55 248 2.0 6.0 0.00 0.00 0.00 51 1015.5
20260507090132 55 305 3.0 6.0 0.00 0.00 0.00 51 1015.5
20260507085531 55 277 2.0 4.0 0.00 0.00 0.00 51 1015.6
20260507085047 55 294 1.0 4.0 0.00 0.00 0.00 50 1015.5
20260507084601 56 250 1.0 7.0 0.00 0.00 0.00 51 1015.5
20260507084041 56 298 2.0 7.0 0.00 0.00 0.00 50 1015.3
20260507083547 56 290 2.0 7.0 0.00 0.00 0.00 49 1015.5
20260507083125 56 258 2.0 5.0 0.00 0.00 0.00 50 1015.6
20260507082532 56 203 3.0 5.0 0.00 0.00 0.00 50 1015.2
20260507082109 56 286 2.0 7.0 0.00 0.00 0.00 50 1015.1
20260507081540 56 289 2.0 9.0 0.00 0.00 0.00 50 1015.1
20260507081047 56 235 2.0 9.0 0.00 0.00 0.00 50 1015.3
20260507080526 56 236 2.0 5.0 0.00 0.00 0.00 49 1015.2
20260507080106 56 186 2.0 5.0 0.00 0.00 0.00 49 1015.1
20260507075524 56 259 2.0 5.0 0.00 0.00 0.00 49 1015.0
20260507075029 56 234 3.0 6.0 0.00 0.00 0.00 49 1015.0
20260507074608 56 277 2.0 6.0 0.00 0.00 0.00 50 1014.9
20260507074056 56 257 2.0 6.0 0.00 0.00 0.00 50 1014.9
20260507073534 56 264 3.0 5.0 0.00 0.00 0.00 51 1014.8
20260507073052 55 265 3.0 7.0 0.00 0.00 0.00 52 1015.0
20260507072540 55 224 3.0 7.0 0.00 0.00 0.00 52 1014.9
20260507072045 55 262 2.0 5.0 0.00 0.00 0.00 53 1014.9
20260507071637 56 227 2.0 5.0 0.00 0.00 0.00 52 1014.9
20260507071042 56 244 3.0 5.0 0.00 0.00 0.00 53 1014.7
20260507070533 56 223 3.0 7.0 0.00 0.00 0.00 52 1014.7
20260507070104 56 236 3.0 7.0 0.00 0.00 0.00 52 1014.7
20260507065518 56 236 3.0 7.0 0.00 0.00 0.00 53 1014.9
20260507065037 56 249 2.0 6.0 0.00 0.00 0.00 52 1014.9
20260507064809 57 200 3.0 6.0 0.00 0.00 0.00 51 1015.1
20260507064018 57 229 3.0 9.0 0.00 0.00 0.00 50 1014.8
20260507063539 57 138 2.0 9.0 0.00 0.00 0.00 50 1014.9
20260507063056 57 244 2.0 8.0 0.00 0.00 0.00 50 1014.7
20260507062530 57 273 2.0 7.0 0.00 0.00 0.00 50 1014.6
20260507062409 58 219 3.0 7.0 0.00 0.00 0.00 49 1014.4
20260507061638 57 221 2.0 8.0 0.00 0.00 0.00 50 1014.4
20260507061032 57 234 2.0 7.0 0.00 0.00 0.00 50 1014.3
20260507060532 57 229 2.0 6.0 0.00 0.00 0.00 51 1014.2
20260507060112 57 243 2.0 7.0 0.00 0.00 0.00 52 1014.3
20260507055606 57 259 3.0 7.0 0.00 0.00 0.00 51 1014.4
20260507055037 57 242 4.0 8.0 0.00 0.00 0.00 51 1014.6
20260507054618 58 286 3.0 7.0 0.00 0.00 0.00 51 1014.6